Location: Sternwarte Stuttgart
(48.7670°N, 9.1830°E)
Time: 08:47:07
(UTC+01:00)

Daily predictions for brighter satellites

Satellite Brightness Start Highest point End
(mag) Time Altitude Azimuth Time Altitude Azimuth Time Altitude Azimuth
Cosmos 2341 Rocket 4.1 16:53:09 10° N 16:59:25 89° W 17:05:39 10° S
BREEZE-M DEB (TANK) 3.8 16:50:07 10° WSW 17:01:44 83° NNW 17:06:11 10° ENE
Cosmos 1125 Rocket 3.8 16:57:29 10° SSW 17:02:47 73° WNW 17:08:08 10° NNE
CZ-2C R/B 3.7 17:06:20 10° NNE 17:10:46 63° ESE 17:15:14 10° S
Genesis I 3.2 17:09:00 10° NW 17:12:56 63° NE 17:16:49 10° SE
Cosmos 2263 Rocket 3.5 17:08:14 10° WSW 17:13:21 35° NW 17:18:32 10° NNE
ERBS 4.0 17:13:21 10° NW 17:15:59 20° N 17:18:30 11° NE
MSX 4.2 17:12:11 10° SE 17:17:29 40° ENE 17:22:48 10° N
Meteor 1-12 Rocket 4.4 17:12:10 10° N 17:17:52 55° ENE 17:23:37 10° SSE
IDEFIX/ARIANE 42P 2.7 17:14:44 10° SE 17:19:46 54° ENE 17:24:50 10° N
Cosmos 1544 Rocket 3.5 17:15:22 10° N 17:19:51 71° E 17:24:18 10° SSE
COSMOS 2487 3.1 17:17:35 10° N 17:20:56 35° ENE 17:24:16 10° SE
CSL-04 Rocket 4.4 17:17:44 10° S 17:23:09 60° WSW 17:28:40 10° NNW
MOS 1 4.3 17:17:44 10° SSE 17:23:19 65° ENE 17:28:56 10° N
Thor Agena Rocket 4.1 17:18:53 10° NNE 17:23:48 40° E 17:28:45 10° SSE
COSMO-SKYMED 1 4.2 17:22:43 11° NE 17:25:03 16° E 17:27:41 10° SE
SL-16 R/B 4.1 17:21:09 10° N 17:26:28 31° WNW 17:31:47 10° WSW
ATLAS CENTAUR R/B 3.8 17:25:05 10° NW 17:26:41 12° NNW 17:28:15 10° N
Cosmos 1975 Rocket 3.3 17:24:05 10° SSW 17:28:23 73° W 17:32:44 10° N
Cosmos 2251 Rocket 3.9 17:24:04 10° NNW 17:29:26 74° WSW 17:34:43 10° SSE
Cosmos 1743 4.0 17:27:02 10° NNE 17:30:01 20° ENE 17:32:58 10° ESE
Meteor 2-19 Rocket 4.4 17:24:15 10° N 17:30:21 88° E 17:36:25 10° S
Cosmos 1500 3.6 17:29:30 10° N 17:33:08 39° ENE 17:36:47 10° SE
USA 234 3.7 17:28:24 12° ENE 17:34:24 50° SE 17:40:42 10° SSW
Cosmos 1844 Rocket 2.8 17:31:31 10° SSW 17:37:07 80° WNW 17:42:49 10° NNE
Cosmos 1975 2.9 17:33:10 10° N 17:37:12 56° ENE 17:41:10 10° SSE
Abrixas 3.2 17:36:43 10° W 17:39:36 49° SSW 17:42:29 10° ESE
Cosmos 1484 Rocket 3.3 17:40:01 10° SE 17:43:24 33° ENE 17:46:45 10° N
OPS 8737 4.2 17:40:16 10° SSW 17:43:28 66° SE 17:45:33 20° NE
CZ-4 R/B 1.6 17:39:24 10° S 17:43:34 76° WSW 17:47:42 10° NNW
SMAP 3.0 17:39:43 10° SSE 17:44:23 85° ENE 17:49:04 10° NNW
NOSS 3-4 (A) 4.0 17:38:04 10° NW 17:44:42 49° NE 17:51:45 10° ESE
NOSS 3-4 (C) 4.0 17:38:10 10° NW 17:44:48 49° NE 17:51:50 10° ESE
Cosmos 1536 Rocket 3.7 17:40:41 10° S 17:45:03 57° E 17:49:29 10° NNE
SL-8 R/B 4.2 17:42:25 10° SW 17:47:00 48° SSE 17:50:18 18° E
Cosmos 921 Rocket 4.2 17:44:14 10° SSE 17:47:34 23° E 17:48:52 20° ENE
CORIOLIS 4.1 17:42:59 10° SSE 17:48:24 83° ENE 17:53:49 10° NNW
YAOGAN 1 2.6 17:49:48 10° SSE 17:54:08 83° WSW 17:58:30 10° NNW
NOSS 3-3 (A) 4.1 17:48:47 10° SSW 17:54:56 63° SE 18:00:10 17° NE
NOSS 3-3 (C) 4.1 17:48:54 10° SSW 17:55:02 63° SE 18:00:16 17° NE
Cosmos 1809 Rocket 4.4 17:52:16 10° N 17:58:26 70° ENE 18:04:32 10° SSE
ATLAS 2AS CENTAUR R/B 4.3 17:52:01 10° NW 17:59:34 44° WSW 18:06:39 10° S
Cosmos 1844 3.9 17:57:26 10° SW 18:02:58 68° WNW 18:08:24 11° NNE
ISS -3.1 18:02:54 10° W 18:06:10 58° NNW 18:07:15 36° NE
Cosmos 2297 4.0 18:01:28 10° S 18:06:46 44° ESE 18:10:00 22° NE
Meteor 1-18 Rocket 4.3 18:01:16 10° SSW 18:06:57 82° WNW 18:12:48 10° N
Cosmos 1455 Rocket 4.2 18:04:36 10° NNW 18:08:50 47° W 18:13:04 10° SSW
NOAA 12 4.5 18:04:14 10° SE 18:09:06 39° ENE 18:13:58 10° N
Cosmos 1934 Rocket 4.3 18:04:10 10° N 18:10:01 41° ENE 18:15:52 10° SE
Cosmos 1812 3.2 18:06:27 10° SSW 18:10:16 61° WNW 18:14:07 10° N
SKYMED 2 3.9 18:11:21 24° NE 18:13:32 44° E 18:17:41 10° S
Cosmos 407 Rocket 4.1 18:10:04 10° N 18:14:42 33° NE 18:15:56 29° E
Cosmos 1238 Rocket 3.5 18:13:02 10° SSW 18:15:52 39° WNW 18:19:00 10° N
Cosmos 2278 Rocket 2.2 18:12:02 10° SSW 18:17:42 82° WNW 18:22:21 16° NNE
CZ-3A R/B 4.0 18:14:56 10° WSW 18:20:45 77° NNW 18:40:30 22° ENE
METEOR-M 4.3 18:22:18 10° SE 18:27:23 47° ENE 18:32:31 10° N
CZ-2C R/B 3.8 18:22:55 10° SSW 18:27:40 41° W 18:32:34 10° NNW
Okean 1 4.0 18:25:06 10° SSW 18:29:05 54° WNW 18:33:06 10° N
Cosmos 2239 Rocket 4.4 18:23:09 10° N 18:29:22 69° ENE 18:35:30 10° SSE
Okean 1-7 Rocket 3.5 18:25:54 10° S 18:30:20 63° E 18:32:26 30° NNE
Resurs 01 Rocket 3.9 18:36:49 12° N 18:36:49 12° N 18:37:10 10° N
Cosmos 1833 Rocket 2.8 18:29:20 10° NNW 18:35:00 76° WSW 18:40:36 10° SSE
Cosmos 1371 Rocket 4.4 18:30:24 10° S 18:35:26 44° ESE 18:36:12 41° E
Cosmos 1346 Rocket 3.1 18:34:10 10° SSW 18:38:01 63° WNW 18:40:20 23° N
Cosmos 2082 Rocket 2.7 18:33:48 10° NNW 18:39:23 62° WSW 18:44:58 10° SSE
BREEZE-M DEB (TANK) 3.1 18:33:10 10° W 18:39:49 81° N 18:40:15 67° ENE
Cosmos 1821 Rocket 3.8 18:34:29 10° N 18:40:38 79° E 18:46:44 10° SSE
Tiangong 1 3.1 18:38:23 10° SW 18:40:14 20° S 18:40:14 20° S
TIMED 4.4 18:37:00 10° SSW 18:41:22 86° ESE 18:42:35 47° NNE
GEOS 3 Rocket 3.5 18:39:20 21° SE 18:42:48 88° NE 18:47:58 10° NW
CZ-3B DEB 2.8 18:39:12 10° WSW 18:43:49 82° NNW 18:49:19 30° ENE
FengYun 1-2 T 4.5 18:45:18 44° ENE 18:45:35 45° ENE 18:50:58 10° N
NOSS 2-1 (D) 3.7 18:44:12 10° SSW 18:47:31 50° SSE 18:47:31 50° SSE
Meteor 1-19 Rocket 4.2 18:42:45 10° S 18:48:35 81° E 18:53:30 15° NNE
NOSS 2-1 (C) 3.7 18:44:53 10° SSW 18:48:11 49° SSE 18:48:11 49° SSE
Cosmos 1605 Rocket 4.0 18:44:57 10° N 18:51:11 57° ENE 18:57:16 10° SSE
ERBS 4.2 18:50:14 10° NW 18:51:53 23° NNW 18:51:53 23° NNW
Cosmos 1606 Rocket 3.4 18:52:02 10° N 18:56:32 81° E 19:01:01 10° SSE
Meteor 1-15 Rocket 4.2 18:50:56 10° N 18:56:52 73° ENE 19:02:41 10° SSE
BREEZE-M R/B 3.5 18:50:26 10° WSW 18:59:32 78° SSE 19:00:25 62° E
COSMO-SKYMED 1 2.9 18:59:56 34° N 19:01:39 63° WNW 19:05:56 10° SSW
Cosmos 1190 Rocket 3.9 18:59:10 10° NNW 19:04:28 89° ENE 19:06:08 45° SSE
Cosmos 1743 4.3 19:02:24 10° NNW 19:06:00 36° W 19:09:32 10° SSW
NOSS 2-1 (E) 4.0 19:03:22 10° SSW 19:06:16 48° SSW 19:06:16 48° SSW
BREEZE M DEB (TANK) 3.5 19:05:25 10° SW 19:09:54 37° SSW 19:09:54 37° SSW
BREEZE M DEB (TANK) 3.8 19:09:04 10° W 19:12:53 63° SSW 19:16:42 33° SE
Meteor 1-23 Rocket 4.1 19:08:29 10° S 19:14:11 84° E 19:15:03 65° NNE
Meteor 2-9 Rocket 4.4 19:11:05 10° NNW 19:16:30 66° W 19:21:47 10° S
USA 234 3.4 19:15:45 48° NE 19:17:36 69° NNW 19:24:04 10° WSW
Meteor 2-4 Rocket 3.6 19:16:14 10° SSW 19:21:35 76° WNW 19:22:36 58° NNW
Cosmos 1025 Rocket 3.8 19:19:21 10° SSW 19:22:59 51° WSW 19:22:59 51° WSW
Cosmos 921 Rocket 4.1 19:21:33 10° SW 19:25:36 41° WNW 19:25:44 41° WNW
SL-8 R/B 4.3 19:24:35 10° W 19:28:17 53° W 19:28:17 53° W
NOSS 3-4 (A) 4.4 19:29:05 10° NW 19:35:49 53° WSW 19:40:51 20° S
NOSS 3-4 (C) 4.4 19:29:10 10° NW 19:35:56 54° WSW 19:40:50 21° S
ISS 0.1 19:39:41 10° WNW 19:39:56 12° WNW 19:39:56 12° WNW
Cosmos 2278 Rocket 4.3 19:58:37 10° W 20:02:42 20° NW 20:04:12 18° NNW
CZ-3B DEB 4.2 21:12:16 10° WNW 21:17:29 52° NW 21:17:29 52° NW
